SL-14 DEB, 45309

Orbit data source: Space-Track

SL-14 DEB, 45309 is space debris in LEO originally from a launch on Thu, 15 Aug 1991 UTC launched from the Plesetsk Missile And Space Complex (PKMTR). Debris objects in space refer to the collection of defunct objects orbiting the Earth. Examples of debris include non-operational satellites, rocket bodies, and fragments generated from explosions, collisions, or faulty payload assembly.

Loading next visibility...
Identifier
45309, 1991-056AX
Orbit
LEO
Country
Flag of CISCIS
Related business
Manufacturer
Unknown
Mission
Spacecraft
Bus & Motor
Unknown
Mass
Unknown
Launch date (UTC)
1991-08-15 (34 years ago)
Launch vehicle
Unknown
Launch site
Plesetsk Missile And Space Complex (PKMTR)
Object type
Payload
Rocket body
Debris
Shape & HBR
Unknown shape, 0.2 m
Radar Cross Section
Small (<0.1 m²)

Expand to show TLE details & history
Last TLE update: 11 hours ago

TLE from 11 hours ago
0 SL-14 DEB
1 45309U 91056AX  26036.69507514  .00004707  00000-0  10534-1 0  9998
2 45309  82.6046 257.0430 0144053 304.1150  54.6378 13.23227688286260
Epoch: 2026-02-05T16:40Z
TLE epoch observation values (Epoch: 2026-02-05T16:40:54.492Z)
Latitude
-0.00001°
Longitude
-129.02767°
Altitude
1,113.33 km
Speed
7.326 km/s
True Right ascension
17h 08m 10s
True Declination
0° 00' 00"
Sunlit
Object was in daylight at epoch
Visualization orbit readout
Latitude
Unknown
Longitude
Unknown
Altitude
Unknown
Speed
Unknown
Apparent Right ascension
Unknown
Apparent Declination
Unknown
Sunlit
N/A
Visualization observer readout
Local Sidereal Time
05:46:46
Azimuth
Unknown
Elevation
Unknown
Doppler factor
Unknown
Orbital elements
Apogee altitude
1,278.378 km
Perigee altitude
1,060.921 km
Semi-major axis
7,547.787 km
Eccentricity
0.01441
Inclination
82.6046°
RAAN
257.043°
Arg. of periapsis
304.115°
True anomaly
55.99803°
Mean anomaly
54.6378°
Eccentric anomaly
55.3165°
Mean motion
3.30989 °/min
Orbital period
108.76 mins
BSTAR
0.010534
Loading maneuver chart data...
Computing Atmospheric mass density...
Loading historical data...
Loading historical data...
Loading historical data...
Loading historical data...
Loading historical data...
Loading historical data...
Loading historical data...

Documentation

Showing up to 5 results
|